TimeMST,TemperatureF,Dew PointF,Humidity,Sea Level PressureIn,VisibilityMPH,Wind Direction,Wind SpeedMPH,Gust SpeedMPH,PrecipitationIn,Events,Conditions,WindDirDegrees,DateUTC
12:53 AM,-9.0,-13.0,83,30.55,10.0,Calm,Calm,-,N/A,,Clear,0,2012-12-21 07:53:00
1:53 AM,-6.0,-11.0,79,30.51,10.0,Calm,Calm,-,N/A,,Clear,0,2012-12-21 08:53:00
2:53 AM,-9.0,-14.1,79,30.53,10.0,Calm,Calm,-,N/A,,Clear,0,2012-12-21 09:53:00
3:53 AM,-9.0,-14.1,79,30.51,10.0,Calm,Calm,-,N/A,,Clear,0,2012-12-21 10:53:00
4:53 AM,-13.0,-17.0,82,30.55,10.0,ENE,5.8,-,N/A,,Clear,60,2012-12-21 11:53:00
5:53 AM,-9.9,-15.0,78,30.57,10.0,Calm,Calm,-,N/A,,Clear,0,2012-12-21 12:53:00
6:53 AM,-9.9,-16.1,74,30.62,10.0,Calm,Calm,-,N/A,,Clear,0,2012-12-21 13:53:00
7:53 AM,-11.9,-17.0,78,30.63,10.0,Calm,Calm,-,N/A,,Clear,0,2012-12-21 14:53:00
8:53 AM,-5.1,-9.9,80,30.61,10.0,Calm,Calm,-,N/A,,Clear,0,2012-12-21 15:53:00
9:53 AM,-0.9,-7.1,75,30.57,10.0,Calm,Calm,-,N/A,,Clear,0,2012-12-21 16:53:00
10:53 AM,3.9,-5.1,66,30.53,10.0,Calm,Calm,-,N/A,,Clear,0,2012-12-21 17:53:00
11:53 AM,12.9,-0.9,54,30.45,10.0,Calm,Calm,-,N/A,,Clear,0,2012-12-21 18:53:00
12:53 PM,16.0,1.0,52,30.41,10.0,ESE,3.5,-,N/A,,Clear,110,2012-12-21 19:53:00
1:53 PM,19.9,3.0,48,30.35,10.0,ENE,3.5,-,N/A,,Clear,60,2012-12-21 20:53:00
2:53 PM,21.0,3.0,46,30.35,10.0,ESE,3.5,-,N/A,,Clear,110,2012-12-21 21:53:00
3:53 PM,21.0,3.0,46,30.35,10.0,ENE,3.5,-,N/A,,Clear,60,2012-12-21 22:53:00
4:53 PM,9.0,-0.9,64,30.44,10.0,NE,4.6,-,N/A,,Clear,40,2012-12-21 23:53:00
5:53 PM,1.0,-6.0,72,30.47,10.0,Calm,Calm,-,N/A,,Clear,0,2012-12-22 00:53:00
6:53 PM,3.0,-4.0,73,30.46,10.0,NNW,12.7,-,N/A,,Clear,340,2012-12-22 01:53:00
7:53 PM,-0.9,-7.1,75,30.50,10.0,Calm,Calm,-,N/A,,Clear,0,2012-12-22 02:53:00
8:53 PM,-8.0,-13.0,79,30.50,10.0,Calm,Calm,-,N/A,,Clear,0,2012-12-22 03:53:00
9:53 PM,-6.0,-11.9,75,30.48,10.0,East,3.5,-,N/A,,Clear,100,2012-12-22 04:53:00
10:53 PM,-5.1,-9.0,83,30.45,10.0,Calm,Calm,-,N/A,,Clear,0,2012-12-22 05:53:00
11:53 PM,-4.0,-9.9,76,30.37,10.0,Calm,Calm,-,N/A,,Clear,0,2012-12-22 06:53:00